Wind_Speed
8 8 9 9 9 9 9 9 9 9 9 9 9 8 7 7 6 6 6 6 6 6 5 5 5 4 3 1 2 6 10 12 12 12 11 12 13 13 16 19 17 17 14 11 10 8 7 7 5 5 5 3 2 1 3 5 7 9 11 10 9 7 3 16 25 26 24 25 27 22 20 19 18 17 15 12 8 8 15 15 15 13 9 14 19 19 19 18
8 8 8 9 9 9 9 9 9 9 9 9 9 8 8 8 7 7 7 7 7 6 6 5 5 5 4 2 0 3 7 11 13 13 12 13 14 14 15 18 18 17 15 12 11 11 10 9 8 9 8 6 6 4 2 3 5 8 10 12 10 9 7 13 26 25 25 26 26 23 20 19 17 17 16 14 12 13 17 17 16 13 13 18 19 19 20 18
7 8 8 9 9 9 9 9 9 9 9 9 9 8 8 8 8 8 7 7 7 7 7 6 5 5 4 3 1 2 6 10 12 14 14 14 15 15 15 18 18 18 17 14 14 13 12 10 10 10 8 7 7 6 2 2 5 8 9 12 11 10 10 11 27 25 25 26 26 24 22 20 19 18 17 14 14 15 16 18 19 15 16 20 19 19 20 19
7 7 8 8 9 9 9 9 9 9 10 9 9 9 8 8 8 8 7 7 7 7 6 6 6 5 4 3 2 1 5 8 11 13 15 15 15 16 16 17 18 19 18 16 15 14 11 10 11 10 9 7 6 5 2 4 6 8 8 11 10 10 10 12 27 25 25 26 25 24 23 21 20 19 17 16 15 15 14 15 14 13 15 18 18 19 20 19
6 7 7 8 9 9 9 9 9 10 10 10 10 9 9 9 8 8 7 7 7 7 6 6 5 5 4 3 2 0 4 6 9 13 14 15 15 16 16 16 18 19 19 17 16 14 11 10 11 12 12 9 5 3 3 5 5 5 5 8 7 8 9 12 26 24 25 26 26 25 22 21 21 20 18 16 14 11 11 12 10 9 13 15 16 19 19 19
6 6 6 7 8 8 8 9 9 10 11 11 10 10 10 9 9 8 8 8 7 7 6 6 5 5 4 4 3 1 2 5 8 11 13 15 15 16 17 17 17 18 18 17 17 15 12 11 11 13 13 9 3 2 4 4 3 3 3 5 5 5 6 11 24 22 24 26 27 26 22 21 21 21 19 16 12 7 7 10 8 9 12 13 14 17 18 19
6 6 6 6 7 7 8 8 9 9 10 10 10 10 10 9 9 9 9 9 9 8 7 6 6 5 5 5 4 2 1 3 5 8 11 14 16 16 17 17 17 17 18 18 18 15 13 12 11 14 13 7 2 2 3 2 1 3 3 5 4 3 3 8 21 21 21 24 26 27 24 24 24 21 19 18 14 8 7 9 9 10 13 14 14 15 17 19
6 6 5 5 6 7 7 8 8 9 10 10 10 10 9 9 9 9 9 9 9 9 8 7 6 5 5 4 3 2 1 3 4 6 9 12 16 17 17 18 18 17 17 18 18 16 15 12 13 15 11 6 2 1 0 2 2 2 4 5 3 1 2 5 18 22 21 23 26 28 27 27 27 22 20 18 15 11 8 10 12 13 15 15 15 15 17 19
5 6 5 5 5 6 7 7 8 8 9 9 9 9 9 9 9 9 9 8 8 8 7 7 6 6 5 4 3 2 2 4 3 5 8 12 15 17 18 18 18 18 18 20 20 19 17 13 14 14 8 5 3 1 1 1 2 2 5 4 2 1 2 3 15 23 22 23 27 29 28 28 28 24 21 19 16 13 11 11 13 15 16 16 16 15 17 19
5 5 5 4 4 5 7 7 8 8 9 9 9 9 9 9 8 8 8 8 7 7 7 7 6 6 5 5 4 3 2 4 4 2 5 11 15 16 17 18 18 18 19 21 21 19 16 14 15 13 8 3 2 1 3 2 2 3 4 2 2 3 3 4 12 23 25 25 28 29 27 27 27 25 23 21 17 14 13 12 13 16 16 16 16 16 17 18
4 4 4 4 3 5 6 7 7 8 8 8 8 8 8 8 8 8 8 9 9 9 9 9 9 8 8 7 5 5 5 3 2 3 3 9 14 16 17 17 18 18 19 21 22 19 16 16 16 13 7 4 3 3 4 2 3 3 3 3 4 5 5 7 12 22 27 27 30 30 27 26 28 27 26 23 19 16 14 12 12 15 16 16 16 17 17 18
3 4 3 3 3 4 6 6 7 8 8 8 7 7 8 8 8 8 9 10 11 10 11 11 12 12 13 12 8 8 9 7 2 3 5 8 13 17 17 16 18 19 19 20 21 19 17 18 16 11 8 7 6 3 2 3 2 3 5 4 6 7 7 8 13 22 28 30 32 32 28 26 28 29 28 25 20 16 15 12 11 14 17 17 17 18 19 19
4 3 3 2 3 4 5 6 7 7 7 7 7 7 8 8 8 8 9 10 10 10 11 12 14 16 16 15 13 14 12 8 3 4 6 8 13 17 17 16 18 19 19 19 20 21 18 19 16 12 11 10 8 4 4 4 2 4 6 6 7 7 7 7 13 21 27 31 33 32 29 27 28 28 28 26 22 19 17 13 12 15 18 17 17 19 20 19
4 3 2 2 3 4 5 6 6 7 6 6 6 7 7 8 8 9 10 10 9 8 9 11 13 16 17 15 14 17 17 11 5 3 5 7 14 17 17 16 18 20 19 19 22 22 18 18 17 13 12 10 8 6 5 4 3 4 6 7 7 7 6 6 13 21 26 31 34 32 30 29 29 28 27 26 22 20 18 15 13 17 19 18 17 18 20 19
4 3 2 3 3 4 4 5 6 6 6 6 6 7 7 7 8 9 10 10 9 8 9 10 11 14 15 14 14 17 19 16 11 2 4 8 13 16 17 16 18 20 19 20 23 23 19 19 19 14 11 10 9 7 5 5 4 4 6 8 8 7 6 5 12 20 24 30 33 32 29 29 30 27 26 25 22 20 18 16 16 19 21 20 19 18 20 19
4 3 3 3 3 4 4 5 5 5 5 5 6 6 7 7 9 10 9 10 11 10 9 8 10 12 12 12 13 18 19 16 15 8 2 8 12 15 16 16 18 20 19 21 24 23 21 21 20 15 12 11 10 7 6 7 6 6 7 10 10 8 5 3 10 17 24 29 32 32 29 29 30 27 27 26 23 21 17 16 19 21 22 21 20 19 20 18
3 3 3 3 3 4 4 5 5 4 4 5 5 6 7 6 7 9 9 9 10 11 10 7 7 9 12 14 13 15 18 16 15 9 2 8 12 14 14 15 16 19 20 23 25 24 23 22 20 17 14 12 11 9 9 9 9 8 8 10 10 8 5 5 9 17 24 27 31 33 29 30 31 29 29 26 23 22 18 18 21 23 23 22 20 18 19 17
3 2 3 3 3 3 4 5 5 4 4 4 5 6 7 4 3 4 6 7 8 9 9 9 8 6 9 14 12 12 16 14 12 6 3 8 12 13 13 14 15 19 22 23 25 24 23 22 19 17 15 14 15 15 12 7 6 5 5 7 8 8 5 6 10 16 24 26 29 33 31 30 32 32 32 30 26 22 19 19 22 24 24 23 21 19 18 17
3 2 2 2 3 3 4 5 5 4 4 4 5 6 7 5 3 2 5 7 9 8 9 10 10 8 8 13 11 12 14 11 10 6 2 5 10 12 11 12 15 19 23 22 23 22 22 22 20 19 20 20 19 17 11 5 2 3 5 8 9 8 4 5 11 16 23 27 29 33 32 31 34 35 35 33 30 24 19 20 24 25 25 24 21 19 18 17
2 1 1 2 2 3 4 4 4 3 4 4 5 6 5 4 5 6 6 8 9 10 10 10 10 10 9 11 11 12 12 9 9 6 2 4 6 8 8 10 12 18 22 21 20 20 19 21 22 23 25 24 19 15 12 9 8 8 8 11 11 8 4 5 11 16 22 26 27 31 30 30 36 37 35 33 31 27 22 23 27 27 25 24 21 19 19 17
2 0 1 1 2 3 3 3 3 3 3 5 5 5 5 6 7 7 7 8 9 9 10 11 10 10 10 10 11 12 12 9 7 6 1 4 6 6 7 8 8 13 20 19 18 18 17 21 26 28 26 25 21 19 18 16 14 12 12 13 13 10 5 5 10 13 19 24 26 28 26 29 37 38 36 35 32 29 24 24 27 27 25 24 21 19 19 17
3 1 0 0 1 2 3 3 3 3 3 5 5 6 8 8 7 7 7 7 7 7 9 12 10 9 10 9 10 11 11 9 6 5 4 3 7 6 7 8 6 8 15 17 18 18 18 22 27 28 25 24 23 22 20 17 15 14 12 13 14 12 6 7 11 12 16 24 26 25 24 31 39 38 37 37 33 30 26 25 26 26 26 25 22 20 20 19
3 1 1 1 1 2 3 2 3 3 3 5 6 6 8 9 7 8 8 6 5 6 7 10 11 11 10 9 9 8 9 9 5 3 4 3 6 6 9 9 5 6 11 14 16 17 19 20 21 23 23 23 22 21 18 16 15 13 12 13 13 12 8 6 11 13 15 23 25 23 23 31 38 40 39 38 36 34 29 26 26 25 25 23 21 21 21 21
4 2 2 2 1 2 2 2 3 3 3 5 6 5 6 9 9 8 8 6 5 4 5 7 10 11 12 10 10 8 6 8 6 6 4 5 7 7 8 5 4 6 7 8 11 14 17 13 12 15 17 20 20 19 18 16 15 13 14 15 11 10 9 6 8 14 17 22 25 24 23 28 36 39 39 39 38 37 32 28 27 25 22 18 17 19 21 21
4 3 2 2 2 2 2 1 2 3 4 4 4 3 4 7 9 8 7 5 6 5 4 4 6 8 9 9 9 9 7 8 8 9 7 6 6 4 3 2 4 6 3 2 6 13 14 10 7 10 12 15 17 17 19 17 14 14 16 15 10 9 9 7 8 16 19 20 23 26 20 22 36 39 37 40 41 39 37 32 30 28 24 21 17 17 21 22
5 3 3 3 2 1 1 0 2 4 5 5 3 1 3 5 6 7 6 5 6 7 5 5 5 5 6 7 6 7 7 7 7 7 5 2 2 2 0 1 2 2 0 4 9 13 11 8 8 11 10 12 14 17 20 17 15 15 15 14 10 9 10 9 10 16 20 18 20 28 20 13 31 42 37 39 42 39 39 37 34 32 29 26 22 18 19 23
5 3 3 4 2 1 1 1 3 5 6 5 3 1 4 5 6 7 6 3 4 7 6 8 9 6 5 6 5 6 7 6 5 5 3 1 2 2 3 4 4 4 4 8 12 11 9 8 10 11 10 11 13 17 19 16 17 17 15 13 10 8 9 9 11 14 16 15 16 26 24 11 22 41 39 40 43 38 38 40 38 36 33 29 26 21 19 21
5 3 4 4 3 1 0 2 5 6 7 6 3 3 4 5 7 7 5 1 4 7 5 8 10 6 4 5 5 6 8 7 5 6 4 1 2 3 3 5 7 7 6 10 14 11 7 9 9 8 10 11 11 15 17 16 19 20 16 12 9 7 8 9 12 14 13 12 12 22 27 11 12 34 40 39 44 40 38 41 40 38 36 32 28 24 21 20
5 3 4 5 4 2 2 4 6 8 8 6 3 3 4 5 6 4 2 1 4 8 6 6 9 8 5 4 4 5 8 5 3 5 4 1 1 2 4 6 8 7 6 10 15 12 8 7 7 7 10 10 9 11 14 16 20 20 16 13 11 7 7 6 7 10 9 8 8 17 27 13 4 26 42 41 45 45 41 41 41 39 37 34 30 26 24 22
5 4 5 5 5 3 3 5 7 9 9 6 3 3 5 6 4 1 0 2 4 8 8 6 9 10 7 5 5 5 6 3 2 4 5 4 1 1 3 6 6 6 6 8 12 12 9 7 7 9 9 7 7 10 13 17 20 20 18 17 13 8 6 7 6 5 4 4 5 9 23 20 4 16 40 45 45 46 42 40 40 41 39 35 33 29 26 25
5 4 5 6 6 5 4 5 7 10 10 7 4 3 4 6 6 2 1 1 4 7 7 6 8 10 7 5 4 2 1 1 2 3 4 5 4 3 4 4 5 7 6 7 9 7 9 10 8 9 9 7 8 11 14 19 20 18 18 19 15 11 9 7 5 3 1 2 3 4 13 21 12 15 31 40 40 40 42 42 40 40 39 36 34 31 28 27
5 5 6 7 6 6 5 5 7 11 11 8 4 2 1 3 6 5 4 3 3 7 9 7 9 10 7 7 7 7 6 3 2 2 3 5 6 5 6 6 6 7 6 9 11 6 6 9 7 7 9 10 11 15 19 19 19 18 19 20 12 6 4 3 1 2 2 3 4 4 7 14 19 23 27 32 37 39 40 41 40 39 39 37 35 32 30 29
5 5 6 7 7 6 6 6 8 11 12 9 5 1 1 3 3 4 7 7 4 7 9 7 9 10 8 9 8 7 6 4 2 1 3 6 6 5 6 7 5 5 6 9 12 8 3 4 5 4 8 10 12 17 25 22 22 24 23 19 10 4 3 0 2 1 3 5 6 8 8 9 16 22 24 29 34 39 40 40 40 39 37 37 35 33 31 30
6 5 6 7 7 7 6 7 8 11 12 10 6 1 3 4 4 4 7 8 6 7 6 5 6 7 7 7 6 4 3 3 3 1 2 4 5 7 9 10 6 2 4 6 8 8 4 2 4 2 4 11 11 13 18 18 22 26 24 20 14 8 5 3 5 3 2 3 5 7 6 6 7 9 15 25 27 32 39 41 41 41 38 36 35 34 33 32
6 5 6 7 7 7 7 8 9 10 12 11 6 3 3 2 4 5 7 7 7 6 4 5 5 5 6 6 5 4 2 4 3 1 2 2 6 7 8 11 9 5 4 4 6 7 5 3 2 4 2 10 11 12 14 15 21 26 25 19 13 11 7 5 6 7 7 5 4 7 6 8 9 5 6 18 22 26 34 37 40 43 42 38 37 37 35 33
6 5 6 6 7 7 7 9 9 9 12 11 7 4 3 2 4 6 7 7 7 6 3 4 5 6 6 5 6 5 2 3 4 2 2 1 4 5 6 8 8 8 8 5 5 7 6 4 2 2 3 7 8 13 16 16 20 24 25 19 10 9 9 5 6 5 6 4 3 8 7 9 11 8 7 14 20 24 31 35 38 41 44 43 40 38 37 35
5 5 6 7 7 7 7 8 9 9 12 10 6 4 3 3 4 5 6 4 5 5 4 2 5 7 6 4 6 6 3 3 4 3 2 1 2 3 3 6 6 7 10 6 5 9 9 8 4 3 3 6 7 12 16 15 17 20 22 18 10 7 8 5 5 4 2 1 3 7 10 10 10 9 10 15 18 22 28 34 36 37 42 45 44 41 39 37
5 5 6 7 7 7 7 8 9 10 11 9 5 4 4 4 5 4 4 2 2 2 3 2 3 4 6 4 5 5 4 4 4 4 3 1 2 2 3 6 5 7 9 7 5 9 11 9 4 3 4 4 9 13 17 17 16 15 15 13 8 5 6 5 5 3 1 1 2 4 8 11 13 13 12 15 17 19 24 30 34 36 39 43 44 44 41 39
5 6 8 9 8 8 8 9 10 10 10 7 5 4 4 5 6 3 2 1 1 1 2 2 2 1 3 5 4 4 5 4 4 4 3 2 4 4 4 7 7 8 9 7 7 8 11 9 3 1 6 5 10 11 14 18 17 14 13 13 11 9 8 8 8 5 3 3 1 2 4 8 12 11 11 13 14 16 21 26 29 33 38 40 40 43 44 43
7 10 10 8 8 8 8 10 11 10 9 7 5 3 2 4 7 5 3 2 2 2 2 1 2 1 2 5 4 2 3 3 3 3 4 4 5 4 6 9 9 9 9 9 9 8 9 9 9 7 4 6 7 8 5 10 10 9 11 12 13 14 10 8 10 9 4 3 2 2 2 7 9 6 7 9 10 14 18 20 20 23 32 39 39 39 41 43
10 12 11 9 9 9 9 11 10 9 10 6 4 2 1 2 6 5 4 4 3 3 4 2 1 1 2 3 2 2 2 2 2 1 2 4 4 4 6 9 10 10 10 9 8 9 9 10 14 13 7 3 7 12 9 4 4 4 4 5 5 11 12 8 7 10 8 4 4 4 1 6 5 3 4 6 7 12 16 17 17 17 23 31 35 36 37 38
13 13 12 11 10 11 11 11 9 11 11 6 4 3 2 4 4 3 2 4 4 6 6 4 2 1 2 1 0 1 0 1 2 1 0 2 3 3 5 7 9 10 11 9 6 8 10 10 13 14 13 10 3 11 13 9 10 9 7 7 3 4 10 9 4 8 11 6 4 5 2 3 4 3 4 4 7 12 15 16 16 17 19 22 25 28 32 35
14 14 14 13 11 11 13 12 12 14 11 5 5 5 4 7 6 4 3 4 6 9 8 6 5 4 3 3 2 1 2 2 0 0 1 2 1 3 4 6 7 8 8 8 8 10 9 9 13 14 14 11 3 9 12 11 11 8 6 5 2 1 5 9 6 8 12 10 6 4 2 4 6 4 4 5 8 12 14 14 13 15 17 17 17 19 24 30
15 15 15 16 13 12 13 12 12 13 9 6 7 7 6 8 8 5 5 7 8 9 9 7 6 5 5 3 2 3 3 2 2 2 1 2 0 2 4 7 7 5 6 8 9 10 8 7 10 12 10 7 0 5 5 8 7 5 7 7 5 3 2 7 8 8 10 13 11 6 2 6 10 7 6 9 11 11 12 13 12 12 12 13 15 17 18 20
16 18 17 18 17 15 14 11 10 10 10 11 10 8 8 7 5 4 7 10 10 9 9 10 9 8 6 4 4 4 4 3 3 3 3 2 1 2 4 5 5 4 6 8 8 9 8 5 5 7 6 4 2 2 6 9 9 9 9 8 6 5 3 4 6 8 9 11 15 11 3 6 12 11 10 12 13 12 11 13 13 11 10 11 13 15 15 14
17 20 20 20 19 18 18 15 14 14 14 13 11 9 9 7 5 5 9 13 13 11 10 10 10 10 7 4 3 4 4 5 6 5 4 4 4 4 4 5 5 5 6 7 6 7 8 5 4 5 6 5 4 4 7 8 8 10 10 8 7 7 4 2 6 9 9 9 14 16 8 6 12 14 13 13 14 13 12 13 14 11 10 10 12 13 12 12
16 20 22 21 19 19 21 20 19 18 17 15 13 11 11 12 11 8 8 13 13 10 9 9 9 11 9 6 5 4 4 5 6 6 5 5 5 5 5 6 7 9 9 7 6 5 6 6 5 2 3 2 4 4 5 6 7 9 9 8 8 9 6 1 7 11 11 8 12 18 15 11 11 12 12 12 13 12 11 12 12 10 10 11 12 14 14 12
15 19 23 23 20 19 21 23 23 21 19 17 17 15 14 13 13 10 8 13 14 10 9 10 10 12 11 9 8 5 3 4 6 6 6 6 7 9 9 9 9 10 10 8 5 4 4 6 5 1 4 4 4 6 6 4 6 9 8 8 9 9 9 5 2 7 10 11 12 16 18 17 13 12 12 12 11 12 10 9 9 9 10 11 13 15 14 13
14 17 22 24 23 21 21 22 23 23 20 18 19 18 14 11 10 10 7 12 17 13 10 11 12 12 10 10 10 8 7 8 7 6 7 8 10 13 13 12 10 10 10 7 4 3 2 3 3 2 2 5 9 10 10 9 8 10 10 10 10 9 8 9 7 2 8 13 15 15 16 16 14 13 14 14 12 12 10 9 8 8 8 10 12 13 13 13
15 16 19 23 25 25 23 21 22 22 20 19 17 16 14 9 6 7 6 9 15 15 12 12 12 11 10 9 10 10 10 11 11 10 10 9 10 11 10 8 6 6 8 7 3 3 2 2 2 2 0 3 7 9 10 13 15 16 14 13 11 7 6 6 6 3 6 12 13 13 12 12 14 15 14 14 13 12 10 9 9 9 9 9 10 11 12 13
15 16 18 21 23 26 25 23 22 20 19 19 17 14 14 9 4 5 7 8 12 15 15 14 13 12 11 10 9 9 9 10 11 11 10 9 8 7 4 2 2 1 3 2 1 0 1 1 0 1 1 2 4 7 9 12 15 16 15 14 11 6 6 6 5 2 6 10 9 7 7 11 15 16 15 14 14 13 11 10 10 11 11 10 10 11 12 12
15 16 17 19 21 23 25 24 24 22 19 20 19 16 15 12 5 7 7 7 11 14 14 15 14 12 12 12 12 11 10 9 8 8 7 6 6 5 4 3 3 2 2 1 0 0 1 1 1 1 1 2 2 4 7 9 11 12 11 9 8 5 5 7 5 2 4 9 9 8 10 11 13 14 13 13 14 13 11 9 9 10 11 11 10 10 11 11
Wind_Direction
24 22 21 21 21 20 19 18 16 15 13 11 10 8 7 5 2 357 352 349 350 353 357 1 2 8 12 358 217 209 206 207 208 208 204 203 205 198 198 204 204 201 201 203 201 194 186 178 166 146 146 172 201 39 65 61 42 36 31 15 9 2 267 197 185 179 180 177 174 180 184 187 184 175 182 175 160 168 159 162 174 171 164 158 156 150 143 138
19 19 18 17 18 18 18 18 16 15 12 10 7 4 4 5 7 4 359 352 350 353 358 2 0 3 11 11 306 205 199 201 203 203 201 198 202 198 195 200 201 200 199 198 197 189 181 179 167 152 156 163 146 126 89 45 21 19 10 360 354 341 324 199 190 187 182 179 177 180 186 192 195 184 182 178 169 174 169 168 178 179 167 160 156 148 139 135
12 13 13 13 14 15 17 16 16 14 12 10 6 4 2 3 5 6 3 357 355 357 0 3 2 4 5 7 34 177 191 195 198 199 200 197 198 199 194 196 198 197 197 197 196 191 188 186 176 167 172 170 157 151 123 24 2 358 348 347 345 331 329 194 190 192 184 181 181 182 185 192 201 196 187 186 181 181 180 172 176 180 169 163 155 146 139 136
2 5 6 9 10 12 13 13 13 12 11 10 8 6 6 7 6 5 2 357 357 359 1 1 0 1 3 7 25 142 182 189 194 195 200 198 194 198 195 193 196 195 196 196 197 199 200 192 179 173 170 173 175 166 110 32 3 345 333 333 331 336 338 192 188 192 186 182 185 186 187 192 201 200 191 193 190 184 185 177 175 176 168 164 155 148 142 139
354 355 358 3 6 9 9 9 8 8 9 9 8 8 10 13 12 9 5 0 360 360 360 2 360 355 357 4 13 68 175 181 188 189 197 200 195 197 195 191 193 193 193 194 198 201 201 194 179 169 164 175 189 152 74 40 14 343 335 328 317 339 348 190 185 186 185 184 187 191 192 193 196 197 196 201 199 186 178 173 172 171 170 167 159 154 146 141
349 349 351 357 4 7 7 6 5 6 7 6 7 8 10 12 11 9 5 3 3 1 360 360 360 351 347 352 4 39 172 177 180 185 194 199 197 197 196 192 191 191 190 191 196 198 199 193 175 168 167 175 179 88 50 44 28 0 347 318 301 332 353 186 186 185 186 188 190 194 197 195 195 197 198 202 205 192 171 167 161 163 176 174 164 159 148 139
349 346 344 351 1 6 6 4 5 5 5 5 7 8 9 9 7 5 3 2 1 360 360 359 0 352 341 350 15 53 135 181 183 187 193 197 198 196 196 194 191 190 187 188 194 196 196 192 178 173 165 154 114 41 23 10 325 12 328 294 312 340 358 188 193 192 190 192 193 195 198 196 194 199 199 197 200 199 186 177 163 161 180 179 168 164 148 135
355 347 342 346 357 5 3 3 6 5 5 6 7 8 9 7 5 2 1 359 358 357 358 359 1 356 346 355 19 45 122 175 195 200 197 198 198 195 194 194 192 189 183 185 191 192 192 190 181 173 158 143 141 100 331 311 296 344 311 297 2 12 339 195 198 199 197 195 193 196 202 197 187 193 200 196 196 201 196 179 166 167 179 180 171 166 149 138
2 352 346 344 355 3 1 3 6 4 6 6 7 9 8 7 6 4 5 4 4 4 5 7 7 7 3 1 352 341 91 129 157 203 209 205 200 195 192 192 191 186 182 184 189 190 188 185 180 169 149 154 171 165 189 291 285 296 312 306 15 306 289 214 200 203 202 199 197 198 205 201 184 182 194 200 198 196 186 168 164 171 177 178 173 167 155 144
6 358 350 345 356 2 1 4 5 4 5 6 8 10 11 13 15 18 23 25 27 27 27 29 28 28 22 8 343 319 15 86 126 181 218 210 203 197 193 191 187 185 183 184 187 187 179 176 178 167 149 156 165 128 151 166 274 287 302 281 299 296 268 237 204 203 204 201 200 201 203 200 189 181 188 200 199 188 178 162 163 173 175 177 173 168 161 150
3 0 353 349 4 6 4 4 4 3 4 8 12 17 23 29 35 42 48 50 50 49 49 50 47 44 36 20 353 323 339 21 129 185 208 204 200 196 196 192 186 185 185 185 184 178 171 175 178 167 151 125 114 92 104 153 271 261 245 265 290 287 258 233 210 205 205 202 201 202 200 195 191 189 192 199 194 182 178 169 170 177 177 178 173 168 165 155
357 0 356 2 18 13 8 6 4 3 6 12 20 28 36 44 52 58 63 62 58 58 61 61 54 47 41 34 22 360 347 357 20 204 192 185 190 191 193 191 187 186 185 185 179 172 173 180 177 170 166 137 125 106 111 183 232 215 225 272 284 281 276 247 218 207 204 201 200 199 196 191 191 191 192 199 195 183 180 179 181 182 182 182 175 170 167 157
4 4 5 30 37 20 12 8 3 4 9 17 27 36 45 54 59 65 71 66 61 60 66 68 58 50 47 45 42 27 9 360 354 231 198 174 181 186 186 185 185 185 184 182 174 169 176 184 180 174 174 150 135 156 170 187 216 220 237 271 275 274 287 261 223 210 202 200 200 196 191 189 191 190 190 196 196 186 182 188 193 189 187 188 183 175 168 155
16 13 31 64 49 25 15 7 4 7 14 21 31 39 49 58 60 67 73 68 64 64 71 74 60 51 49 46 41 30 22 21 20 237 206 173 179 183 179 178 183 184 182 179 174 172 178 190 188 175 172 161 151 172 186 200 220 238 247 262 271 275 296 272 223 213 203 198 199 195 190 189 190 191 191 192 193 187 183 193 200 193 190 192 190 177 164 152
25 32 68 78 52 28 15 6 6 10 17 24 34 42 48 55 62 71 78 69 68 74 79 80 64 52 43 38 36 28 25 27 25 6 193 177 179 179 176 175 179 183 181 177 175 176 183 193 190 177 175 174 171 186 201 206 218 241 247 258 273 280 304 282 214 210 205 198 197 196 193 190 190 192 191 186 185 186 188 196 200 195 192 194 194 174 156 150
30 53 87 81 52 29 14 4 8 17 22 24 32 44 47 56 69 72 76 73 74 80 81 81 68 54 39 34 38 30 25 26 21 11 200 178 175 175 175 175 176 181 180 177 177 178 185 194 190 180 177 184 190 194 200 221 238 236 241 260 274 278 287 247 201 203 205 200 195 194 193 190 188 188 187 183 182 185 194 202 198 195 194 196 195 172 155 154
30 66 93 79 51 28 12 5 14 26 31 32 36 45 47 64 77 63 64 74 77 77 74 78 67 47 34 34 39 30 27 27 19 8 206 178 172 169 170 171 173 179 180 179 180 181 187 194 193 184 178 189 200 199 209 233 233 219 234 252 260 266 257 219 204 199 202 202 196 195 194 191 189 186 184 183 182 185 195 203 198 194 194 196 194 174 161 161
30 72 93 74 47 26 15 10 24 29 27 39 46 43 43 70 101 48 55 67 65 64 61 61 57 40 31 33 32 23 25 28 23 21 191 188 174 165 164 167 171 180 182 183 183 185 192 196 194 188 183 194 203 201 204 211 206 208 246 258 260 259 239 209 209 201 199 202 199 197 194 190 187 186 184 182 182 187 196 202 200 195 193 195 192 176 169 168
27 74 91 68 39 23 19 21 35 26 13 37 47 35 33 62 97 73 75 69 57 59 59 57 53 45 36 34 32 25 29 32 18 14 234 212 181 169 166 165 173 183 184 186 186 189 197 199 198 194 189 196 204 203 198 184 209 289 300 290 281 264 242 207 206 203 197 198 202 202 198 190 185 186 187 183 180 186 197 202 201 196 190 193 190 178 178 175
18 74 88 57 32 22 24 36 46 20 13 35 37 31 28 66 94 89 91 78 62 61 59 58 56 50 43 36 36 37 41 41 18 12 201 208 179 170 167 162 172 186 188 188 189 193 202 204 204 202 195 196 204 212 217 228 253 279 290 287 277 260 252 204 199 205 198 194 199 202 200 192 186 186 188 186 180 181 195 203 198 194 189 191 189 183 187 182
4 55 93 45 23 17 25 48 53 21 30 46 45 59 82 104 103 85 83 80 68 64 57 53 55 57 58 48 39 42 46 46 31 32 81 188 171 162 171 169 171 188 189 189 191 196 208 214 211 207 200 196 203 216 226 237 250 265 276 276 265 248 236 192 191 206 204 196 195 197 199 195 189 186 187 188 181 178 193 203 196 190 188 191 190 189 194 191
348 320 227 4 1 11 25 52 58 34 51 64 57 64 74 79 77 59 61 75 71 67 58 50 50 56 63 60 48 48 46 41 39 36 39 145 160 151 161 164 158 178 185 190 195 201 214 219 213 209 205 202 207 216 223 235 247 257 264 257 249 237 205 176 185 196 205 201 195 194 195 193 191 188 188 188 182 179 190 200 195 189 188 191 193 195 200 201
337 296 246 273 327 357 12 48 66 53 61 71 59 51 51 46 42 38 39 56 67 64 61 56 58 62 63 60 51 48 44 36 32 30 39 128 154 147 156 161 162 165 178 193 198 207 221 218 207 207 211 211 213 216 220 230 240 247 241 232 239 235 209 191 188 185 198 204 199 195 192 191 191 190 189 187 181 181 189 195 195 192 192 194 197 201 204 205
331 293 249 262 297 346 1 55 81 72 79 80 61 43 42 39 33 28 24 35 55 57 66 67 69 70 65 57 44 37 39 39 44 42 50 143 150 143 155 167 172 155 162 191 201 222 228 208 193 208 214 217 218 214 215 222 232 240 233 229 248 253 231 225 197 181 189 201 198 194 190 191 194 191 189 187 182 184 190 192 194 196 198 201 206 210 209 208
324 289 250 254 271 338 351 58 99 112 119 106 74 36 35 41 37 34 27 33 51 54 62 66 75 75 62 51 38 30 37 49 62 62 68 125 126 110 138 145 147 143 135 206 247 257 235 191 201 228 215 219 219 207 208 219 232 238 232 231 258 270 238 222 197 179 183 196 195 189 188 195 198 196 193 189 184 186 191 193 196 199 202 207 213 217 215 213
322 288 245 246 258 320 340 71 108 131 137 130 115 45 33 42 35 33 26 26 53 57 53 44 51 62 48 45 39 28 33 46 63 71 78 107 57 36 194 236 181 158 339 294 285 269 234 204 247 252 223 222 225 211 208 219 236 237 228 228 241 248 234 226 207 185 184 197 197 192 193 198 198 199 198 191 187 191 194 195 198 200 203 208 214 218 220 217
318 283 240 239 247 277 301 113 127 135 139 148 153 77 44 37 17 16 4 347 41 43 40 35 33 43 43 34 29 21 20 23 36 59 94 143 338 317 265 288 302 304 313 305 289 265 247 258 263 252 234 231 232 220 213 222 236 230 221 223 225 224 233 231 208 193 195 204 201 198 202 204 200 203 201 192 189 193 196 197 199 201 204 208 212 216 222 224
314 278 236 231 236 259 170 132 147 146 144 154 145 71 41 14 359 3 353 356 39 20 22 31 26 35 36 9 7 12 9 2 10 40 82 137 330 308 286 306 311 304 297 297 287 263 259 277 266 248 241 239 235 222 216 224 231 225 216 211 201 205 226 218 199 199 207 208 201 202 204 210 212 206 202 196 195 195 196 199 200 202 204 207 211 214 219 227
313 273 233 224 225 224 165 152 163 161 152 151 137 61 23 358 347 353 356 47 36 15 14 22 15 13 358 344 339 329 343 356 13 29 35 15 303 287 304 315 309 296 276 281 281 270 263 274 276 261 247 247 249 230 222 226 224 214 203 191 178 183 204 189 184 202 212 211 214 210 204 203 238 207 200 199 200 198 197 199 201 202 204 208 210 211 214 223
309 272 232 221 219 211 186 172 172 171 165 162 146 71 35 22 3 327 43 27 22 20 19 16 12 7 357 2 2 321 322 343 355 355 348 337 11 99 318 314 299 290 283 283 290 289 279 265 261 257 246 245 252 234 226 227 215 196 182 172 153 129 141 149 153 176 186 213 253 239 206 198 230 211 202 202 202 200 199 199 201 203 204 208 210 209 211 218
304 271 233 223 218 215 204 187 178 178 179 178 148 84 51 52 42 44 119 25 12 19 17 16 9 1 2 22 37 48 32 358 343 341 331 332 358 3 325 310 302 307 309 315 323 310 272 256 248 247 239 232 234 213 206 213 205 187 176 165 138 110 117 128 137 150 127 220 246 278 203 197 218 221 206 207 208 205 204 203 203 204 205 207 209 207 210 217
298 269 234 225 221 217 212 201 190 186 188 188 163 69 6 79 53 47 50 25 359 11 13 16 13 11 37 81 93 96 90 71 359 326 334 346 351 348 333 322 311 312 317 329 339 337 259 246 239 244 234 234 235 195 175 186 196 195 187 170 141 102 108 110 142 211 274 244 212 229 204 204 230 232 216 212 212 210 210 209 208 207 207 208 208 207 209 215
289 264 236 227 224 223 212 206 200 192 191 190 177 73 88 119 71 48 40 31 16 14 12 14 27 38 68 94 97 91 87 84 74 12 13 12 16 42 29 8 339 307 306 319 333 341 305 206 189 226 215 222 241 200 175 176 190 201 201 189 173 127 103 135 245 263 272 245 221 218 215 219 239 242 227 214 212 212 214 215 213 211 211 212 209 207 209 214
282 261 240 230 228 226 212 207 206 197 193 191 192 150 110 104 79 58 35 26 12 8 14 17 37 58 66 70 73 75 77 73 82 77 351 17 42 63 48 33 33 3 314 315 330 334 316 179 128 62 172 199 232 219 196 192 195 202 209 211 216 206 170 176 201 193 170 197 200 198 214 226 237 257 228 210 210 213 215 216 214 212 214 214 211 207 209 214
279 262 239 230 231 231 217 209 209 203 195 192 191 168 129 95 78 59 29 19 3 357 33 48 58 85 79 64 52 55 68 34 31 289 287 20 39 38 40 40 43 29 352 332 343 338 303 274 51 42 136 190 209 218 218 205 193 198 205 211 226 227 200 147 163 180 154 139 181 192 217 239 235 278 234 206 209 212 211 212 213 213 213 212 211 209 210 214
273 256 236 227 226 231 224 214 213 205 193 189 192 186 157 111 93 63 30 26 19 2 19 56 68 80 80 75 52 52 96 26 11 328 292 337 21 23 32 39 39 17 5 10 359 346 315 292 1 58 180 196 206 214 218 210 198 198 202 208 222 223 209 156 123 145 147 139 204 204 226 250 243 261 252 220 219 214 209 208 209 212 212 211 211 211 213 216
262 244 230 223 218 225 225 218 217 203 189 190 202 206 176 138 118 80 40 33 39 12 347 34 65 51 43 59 54 48 63 44 21 356 335 294 339 16 7 16 29 3 359 9 359 350 332 306 330 38 160 193 212 213 209 211 210 203 202 208 211 206 215 195 120 107 123 182 224 216 238 252 244 245 242 234 229 216 209 207 206 208 210 211 212 211 214 218
247 228 216 215 210 213 218 218 214 196 186 186 184 169 156 155 147 99 53 34 84 7 337 44 75 36 25 30 42 47 41 41 36 6 345 313 5 19 340 349 2 344 344 342 331 347 344 321 306 52 69 150 186 198 201 209 220 222 219 218 212 202 213 195 153 132 168 213 247 235 247 258 256 254 243 236 231 219 211 208 209 211 210 210 212 212 213 217
225 200 198 205 201 200 208 212 205 192 186 178 159 151 154 172 180 151 82 73 71 342 311 66 83 28 14 3 9 48 45 43 50 28 6 5 17 27 4 348 339 328 327 315 307 333 349 344 301 331 35 96 153 168 189 206 218 230 234 229 226 231 232 215 205 199 171 172 242 246 250 276 283 273 245 233 230 217 207 205 209 213 211 209 210 211 213 217
197 185 188 192 191 194 200 199 195 191 190 179 154 141 129 177 189 191 200 228 306 282 241 51 75 137 7 351 331 341 27 45 58 47 38 24 10 15 17 5 348 332 322 306 299 308 331 338 312 304 15 84 103 93 137 201 217 226 223 220 222 226 226 216 214 215 195 170 168 163 257 290 306 296 239 235 229 208 199 198 201 205 206 207 208 209 212 216
182 183 187 180 179 190 192 192 199 207 204 197 172 142 26 235 198 190 198 218 242 215 215 303 25 109 2 6 3 328 353 61 66 32 30 20 12 14 12 2 352 341 331 317 299 295 306 320 316 313 324 22 59 61 67 134 132 96 146 175 215 229 222 205 199 210 210 201 183 166 231 286 295 292 246 247 230 205 194 191 193 193 196 203 208 210 212 216
182 184 194 188 180 189 191 188 205 220 213 206 206 202 315 296 247 228 222 221 223 210 215 255 268 246 293 284 29 353 250 130 53 37 95 34 27 15 358 349 348 346 341 339 330 319 310 307 315 312 304 306 30 79 67 92 126 111 119 152 163 240 226 212 201 210 204 198 200 188 197 273 261 261 260 240 222 213 202 193 193 193 195 199 205 212 216 218
192 189 204 207 197 196 202 204 210 215 213 220 240 243 292 308 297 284 245 218 220 223 224 233 237 231 236 236 237 266 232 214 264 20 117 105 54 339 318 315 330 346 357 359 354 345 326 308 320 318 302 298 209 126 81 89 138 142 113 134 142 353 237 233 255 239 206 190 189 189 200 226 214 226 239 212 208 212 205 197 189 187 193 192 192 206 216 219
201 191 202 216 220 215 216 221 216 211 224 258 255 251 275 295 302 284 237 213 212 229 237 229 222 213 197 197 217 229 237 222 212 241 222 147 108 305 292 302 319 349 23 13 355 350 341 324 339 342 332 331 248 149 75 61 93 89 45 32 19 11 289 253 258 246 212 201 203 205 206 201 193 195 206 195 193 198 196 195 193 190 191 186 183 192 202 210
206 195 197 213 225 224 219 226 227 223 246 262 252 253 270 277 282 260 235 223 227 251 256 236 227 220 201 202 227 222 220 219 214 230 236 215 230 264 273 300 326 0 22 10 2 7 7 354 13 38 55 42 2 346 349 356 16 25 9 355 356 8 347 274 243 228 221 217 217 217 211 192 190 188 190 186 185 189 192 198 205 204 195 187 188 191 194 199
209 202 201 209 221 227 226 232 239 242 253 260 254 259 274 278 281 263 239 234 242 259 261 244 234 225 204 192 211 197 194 223 232 227 233 241 244 260 273 286 303 320 346 352 354 16 26 42 73 92 102 84 44 22 5 350 360 17 9 352 353 5 358 228 203 218 229 233 232 232 233 211 198 191 188 186 185 184 188 199 208 211 204 197 195 194 194 199
215 209 205 205 215 227 230 234 242 247 254 260 258 264 281 294 303 297 251 239 241 239 240 241 227 218 207 197 213 207 181 207 224 226 244 257 254 264 270 272 284 291 303 320 334 2 30 61 74 126 175 80 31 3 358 2 14 18 11 5 9 11 9 196 204 220 225 229 243 243 238 228 216 206 195 189 189 187 187 196 202 206 208 205 200 195 191 192
225 216 209 207 213 222 225 229 237 244 249 254 257 267 286 297 296 296 271 248 240 223 223 228 211 209 212 204 210 214 197 223 238 244 264 276 274 273 267 265 274 277 286 309 340 12 47 65 55 10 229 234 256 280 304 342 21 12 4 11 14 9 8 6 266 223 218 226 246 254 247 234 224 216 203 194 196 197 193 196 200 204 208 204 200 197 194 196
234 225 218 216 219 223 222 224 231 238 244 251 256 262 277 291 282 277 274 251 237 218 212 219 205 204 213 209 214 227 238 248 247 244 260 274 280 281 276 274 276 269 273 290 324 351 27 78 49 6 247 239 242 254 271 276 296 322 337 355 0 359 6 1 346 274 215 226 241 255 253 235 217 208 200 194 198 202 200 204 207 210 212 205 200 200 204 210
241 235 228 224 224 227 228 226 229 235 240 246 252 255 263 281 286 261 243 238 233 217 210 218 212 209 220 223 233 241 241 244 246 247 256 267 281 288 285 288 291 266 262 272 290 325 348 98 67 13 250 233 238 245 263 272 276 286 302 319 331 343 7 2 348 317 210 215 233 247 240 214 200 198 192 189 195 201 205 209 206 206 207 203 203 207 210 213
247 243 238 233 230 231 233 233 233 236 238 240 245 251 253 257 283 271 240 224 232 229 220 218 215 215 219 221 230 239 240 248 253 251 253 263 284 296 288 304 338 250 236 257 231 228 42 113 156 327 312 221 218 228 246 264 270 273 284 300 309 330 11 25 19 338 212 204 214 225 192 176 185 189 182 184 193 199 206 208 205 210 210 205 207 211 210 210
253 250 246 241 237 235 236 238 239 240 243 242 244 252 253 247 268 296 268 213 218 231 226 220 223 225 225 227 234 246 253 256 251 243 243 253 268 282 270 252 260 252 228 218 213 321 351 325 269 284 274 233 236 249 245 252 264 265 268 287 301 321 3 15 18 9 215 204 189 152 139 159 183 185 177 180 189 197 207 211 213 219 217 209 207 209 210 210
Height
3157 3156 3156 3155 3155 3154 3153 3153 3152 3151 3151 3150 3150 3149 3149 3149 3148 3148 3147 3147 3147 3147 3147 3146 3146 3146 3146 3146 3146 3146 3147 3147 3148 3149 3151 3152 3153 3154 3155 3156 3157 3158 3159 3160 3161 3161 3162 3162 3162 3163 3163 3163 3163 3164 3165 3165 3165 3164 3163 3163 3164 3165 3165 3166 3167 3168 3169 3171 3172 3173 3174 3175 3176 3177 3178 3179 3180 3181 3181 3182 3183 3184 3185 3186 3187 3187 3187 3188
3157 3157 3156 3156 3155 3154 3154 3153 3152 3151 3151 3150 3150 3149 3149 3148 3148 3148 3147 3147 3146 3146 3146 3146 3146 3145 3145 3145 3145 3145 3146 3146 3147 3148 3149 3150 3151 3152 3154 3155 3156 3157 3159 3159 3160 3160 3161 3162 3162 3163 3163 3163 3164 3164 3165 3165 3165 3164 3163 3163 3164 3164 3164 3165 3167 3168 3169 3171 3172 3173 3174 3175 3176 3177 3178 3179 3179 3181 3181 3181 3183 3183 3184 3186 3187 3188 3188 3189
3158 3157 3157 3156 3155 3155 3154 3153 3152 3152 3151 3150 3150 3149 3149 3148 3148 3148 3147 3147 3146 3146 3146 3145 3145 3145 3145 3144 3144 3144 3145 3145 3146 3147 3148 3149 3150 3151 3153 3154 3155 3156 3158 3159 3159 3160 3160 3161 3162 3162 3163 3163 3164 3164 3165 3165 3165 3164 3164 3164 3164 3163 3162 3163 3166 3168 3170 3171 3173 3173 3174 3175 3176 3177 3178 3179 3180 3181 3181 3181 3182 3183 3184 3185 3187 3188 3188 3189
3158 3157 3157 3156 3156 3155 3154 3153 3153 3152 3151 3150 3150 3149 3149 3148 3148 3147 3147 3146 3146 3146 3145 3145 3144 3144 3144 3143 3143 3143 3144 3144 3145 3146 3147 3148 3149 3150 3151 3153 3154 3156 3157 3158 3159 3160 3160 3161 3162 3163 3163 3164 3164 3165 3165 3165 3164 3164 3164 3164 3164 3163 3162 3162 3165 3168 3170 3172 3174 3174 3174 3175 3176 3177 3179 3179 3179 3181 3182 3183 3183 3184 3185 3186 3187 3188 3189 3189
3158 3158 3157 3157 3156 3155 3155 3154 3153 3152 3151 3151 3150 3149 3148 3148 3148 3147 3147 3146 3146 3145 3145 3145 3144 3144 3143 3143 3143 3143 3143 3144 3144 3145 3146 3147 3148 3149 3150 3152 3153 3155 3156 3158 3159 3160 3161 3161 3162 3163 3164 3164 3165 3165 3165 3165 3165 3165 3164 3164 3164 3164 3163 3163 3165 3168 3170 3172 3174 3175 3175 3176 3177 3178 3179 3179 3180 3181 3183 3184 3186 3186 3187 3188 3189 3189 3189 3190
3158 3158 3157 3157 3156 3156 3155 3154 3153 3153 3152 3151 3150 3149 3148 3148 3147 3147 3146 3146 3145 3145 3145 3144 3144 3143 3143 3142 3142 3143 3143 3143 3144 3144 3145 3146 3147 3148 3149 3151 3152 3154 3155 3157 3158 3159 3161 3161 3162 3163 3164 3165 3165 3165 3165 3165 3165 3164 3164 3164 3165 3165 3164 3165 3166 3168 3170 3172 3173 3175 3176 3176 3177 3178 3179 3180 3181 3183 3184 3185 3187 3188 3189 3189 3190 3190 3190 3191
3158 3158 3157 3157 3156 3156 3155 3154 3154 3153 3152 3151 3150 3149 3149 3148 3147 3147 3146 3145 3145 3145 3144 3144 3143 3143 3142 3142 3142 3142 3143 3143 3143 3144 3145 3145 3146 3147 3148 3150 3151 3153 3155 3157 3158 3159 3161 3161 3162 3164 3165 3165 3165 3165 3165 3165 3164 3164 3164 3164 3165 3165 3165 3166 3167 3169 3170 3171 3173 3175 3176 3175 3176 3178 3179 3180 3182 3183 3185 3186 3187 3188 3189 3190 3191 3192 3192 3191
3158 3158 3157 3157 3156 3156 3155 3155 3154 3153 3152 3151 3151 3150 3149 3148 3147 3147 3146 3145 3145 3144 3144 3143 3143 3142 3142 3142 3142 3142 3142 3143 3143 3143 3144 3145 3145 3146 3147 3149 3150 3152 3154 3156 3157 3159 3160 3161 3163 3164 3164 3164 3164 3164 3164 3164 3164 3164 3164 3164 3165 3165 3166 3167 3168 3169 3170 3171 3172 3174 3174 3174 3174 3177 3179 3180 3181 3183 3185 3185 3187 3188 3189 3190 3191 3193 3192 3192
3158 3157 3157 3157 3156 3156 3155 3155 3154 3153 3153 3152 3151 3150 3149 3148 3147 3147 3146 3145 3145 3144 3144 3143 3143 3142 3142 3142 3141 3141 3142 3143 3143 3143 3143 3143 3144 3145 3146 3148 3149 3151 3153 3154 3156 3158 3160 3161 3162 3163 3163 3164 3164 3163 3163 3164 3164 3164 3164 3164 3165 3165 3166 3167 3167 3168 3170 3171 3172 3173 3174 3175 3175 3176 3178 3180 3181 3184 3185 3185 3187 3188 3189 3190 3192 3193 3193 3193
3158 3157 3157 3156 3156 3156 3155 3154 3154 3153 3152 3152 3151 3150 3149 3148 3148 3147 3146 3145 3145 3144 3144 3143 3143 3142 3142 3141 3141 3141 3142 3143 3143 3142 3142 3142 3143 3145 3146 3147 3149 3150 3152 3154 3156 3158 3160 3161 3161 3162 3163 3163 3163 3163 3163 3163 3163 3164 3164 3164 3164 3165 3165 3166 3166 3167 3168 3169 3171 3173 3174 3176 3177 3177 3178 3179 3182 3184 3185 3185 3187 3188 3189 3191 3192 3193 3194 3194
3158 3157 3157 3156 3156 3156 3155 3154 3154 3153 3152 3152 3151 3150 3149 3149 3148 3147 3146 3146 3145 3144 3144 3143 3143 3142 3142 3141 3141 3141 3141 3142 3142 3141 3141 3142 3143 3144 3145 3146 3148 3150 3152 3153 3155 3158 3159 3160 3160 3161 3162 3162 3162 3162 3162 3163 3163 3163 3164 3164 3163 3164 3164 3165 3165 3165 3166 3167 3169 3171 3174 3176 3178 3178 3178 3180 3182 3184 3185 3186 3187 3188 3190 3191 3192 3194 3194 3194
3158 3157 3157 3156 3156 3156 3155 3154 3154 3153 3152 3151 3151 3150 3150 3149 3148 3147 3146 3146 3145 3145 3144 3144 3144 3143 3142 3142 3141 3141 3140 3140 3140 3140 3140 3140 3142 3143 3144 3146 3148 3149 3151 3153 3155 3157 3158 3159 3160 3161 3161 3161 3161 3162 3162 3163 3163 3163 3163 3163 3163 3163 3163 3163 3163 3163 3164 3166 3167 3169 3173 3175 3177 3177 3179 3180 3182 3184 3185 3186 3187 3189 3190 3191 3193 3194 3194 3195
3158 3157 3157 3156 3156 3156 3155 3154 3154 3153 3152 3151 3151 3150 3150 3149 3148 3147 3147 3146 3146 3145 3145 3144 3144 3143 3142 3142 3142 3141 3140 3140 3140 3139 3139 3140 3140 3142 3143 3145 3147 3149 3151 3153 3154 3156 3157 3158 3159 3160 3160 3160 3160 3161 3162 3163 3163 3163 3162 3162 3162 3162 3162 3161 3161 3161 3162 3164 3165 3168 3172 3174 3175 3177 3178 3180 3182 3183 3185 3186 3187 3189 3190 3191 3192 3194 3195 3195
3158 3157 3157 3157 3156 3156 3155 3154 3153 3153 3152 3152 3151 3150 3150 3149 3149 3148 3147 3147 3146 3145 3145 3145 3144 3143 3143 3143 3142 3142 3140 3140 3139 3139 3139 3139 3140 3141 3142 3144 3146 3148 3150 3152 3153 3155 3156 3157 3158 3159 3160 3160 3160 3161 3162 3163 3162 3162 3162 3161 3161 3162 3160 3159 3159 3159 3161 3163 3164 3168 3170 3172 3175 3176 3178 3180 3181 3183 3184 3186 3188 3189 3190 3191 3192 3194 3195 3195
3158 3157 3157 3157 3156 3156 3155 3154 3153 3153 3152 3152 3151 3151 3150 3150 3149 3148 3148 3147 3146 3146 3145 3145 3144 3143 3143 3143 3142 3142 3141 3140 3139 3139 3138 3139 3140 3140 3141 3143 3145 3147 3149 3151 3152 3154 3154 3155 3157 3159 3159 3159 3160 3161 3162 3162 3162 3162 3161 3161 3161 3161 3160 3158 3157 3159 3161 3163 3165 3167 3169 3171 3174 3176 3177 3179 3181 3183 3184 3186 3188 3189 3190 3191 3192 3194 3195 3195
3157 3157 3157 3157 3156 3156 3155 3154 3154 3153 3153 3152 3152 3151 3151 3150 3150 3149 3148 3148 3147 3146 3146 3145 3144 3144 3143 3143 3142 3141 3141 3141 3140 3139 3139 3139 3140 3140 3141 3142 3144 3146 3148 3150 3151 3152 3153 3154 3156 3158 3158 3159 3160 3161 3162 3162 3162 3161 3161 3160 3160 3160 3159 3158 3158 3159 3161 3162 3165 3166 3168 3170 3172 3174 3177 3178 3180 3182 3184 3186 3187 3189 3190 3191 3192 3193 3194 3195
3157 3157 3157 3157 3156 3156 3155 3154 3154 3153 3153 3152 3152 3151 3151 3151 3150 3149 3149 3148 3148 3147 3146 3146 3145 3144 3144 3142 3141 3141 3141 3141 3140 3140 3140 3139 3140 3141 3142 3142 3144 3146 3147 3149 3150 3151 3152 3154 3156 3157 3157 3158 3159 3161 3161 3161 3161 3160 3160 3160 3159 3159 3159 3159 3158 3159 3160 3162 3164 3166 3168 3170 3172 3174 3176 3178 3180 3182 3184 3185 3187 3188 3190 3191 3192 3193 3194 3195
3157 3157 3157 3156 3156 3155 3155 3154 3154 3154 3153 3153 3152 3151 3151 3150 3150 3149 3149 3149 3148 3147 3147 3146 3145 3144 3144 3142 3141 3141 3141 3141 3141 3140 3140 3140 3140 3141 3141 3142 3143 3145 3147 3148 3149 3151 3152 3153 3155 3156 3157 3158 3158 3159 3160 3160 3160 3160 3160 3159 3159 3159 3159 3159 3159 3159 3160 3162 3163 3165 3168 3170 3172 3174 3175 3177 3180 3182 3184 3185 3187 3188 3189 3191 3192 3192 3194 3195
3157 3157 3157 3156 3156 3155 3155 3154 3154 3154 3153 3153 3152 3151 3150 3150 3150 3149 3149 3149 3148 3148 3147 3146 3145 3144 3144 3143 3142 3142 3141 3141 3141 3141 3141 3141 3141 3141 3141 3142 3143 3144 3146 3147 3149 3150 3151 3152 3153 3155 3156 3156 3157 3158 3159 3160 3160 3160 3160 3160 3159 3159 3158 3158 3158 3159 3160 3161 3163 3165 3167 3170 3171 3173 3174 3176 3178 3181 3184 3185 3187 3188 3189 3190 3191 3192 3194 3196
3157 3157 3157 3156 3156 3155 3155 3154 3154 3154 3153 3152 3152 3151 3151 3150 3150 3150 3150 3149 3149 3148 3147 3146 3145 3145 3144 3143 3143 3142 3141 3141 3142 3141 3141 3141 3141 3141 3142 3142 3143 3144 3145 3147 3149 3150 3151 3151 3151 3152 3154 3156 3157 3158 3159 3160 3160 3160 3160 3160 3160 3160 3158 3158 3158 3159 3159 3161 3163 3165 3167 3169 3170 3172 3174 3176 3178 3180 3183 3185 3186 3187 3188 3189 3191 3192 3194 3196
3157 3157 3157 3156 3156 3155 3155 3155 3154 3154 3153 3152 3152 3152 3151 3151 3150 3150 3150 3150 3149 3149 3148 3147 3146 3145 3145 3144 3143 3142 3141 3141 3142 3142 3141 3141 3141 3142 3142 3143 3144 3144 3146 3147 3149 3149 3150 3150 3150 3152 3154 3156 3157 3158 3159 3159 3160 3160 3160 3160 3159 3159 3158 3158 3158 3159 3159 3161 3163 3165 3167 3168 3170 3171 3174 3176 3178 3180 3182 3184 3185 3186 3187 3189 3190 3192 3194 3196
3157 3157 3157 3156 3156 3155 3155 3155 3154 3154 3154 3153 3153 3153 3152 3152 3151 3151 3150 3150 3150 3149 3148 3147 3146 3146 3145 3144 3144 3143 3142 3142 3143 3142 3142 3142 3142 3142 3143 3143 3145 3145 3146 3148 3148 3149 3148 3147 3149 3152 3155 3156 3157 3157 3158 3159 3160 3160 3160 3159 3159 3159 3158 3158 3158 3159 3159 3161 3162 3164 3166 3167 3169 3171 3173 3176 3178 3180 3182 3184 3185 3186 3187 3188 3189 3191 3194 3195
3157 3157 3156 3156 3155 3155 3155 3155 3154 3154 3154 3154 3154 3153 3153 3152 3152 3151 3150 3150 3150 3149 3148 3148 3147 3146 3146 3145 3145 3144 3143 3142 3143 3143 3143 3143 3143 3143 3143 3144 3145 3145 3146 3147 3148 3148 3147 3146 3149 3152 3154 3155 3156 3157 3158 3158 3159 3159 3159 3158 3158 3158 3158 3157 3157 3158 3159 3160 3162 3164 3166 3167 3169 3171 3172 3175 3177 3179 3181 3183 3185 3186 3187 3188 3189 3191 3193 3194
3157 3156 3156 3156 3155 3155 3155 3155 3155 3154 3154 3154 3154 3154 3153 3153 3152 3151 3151 3150 3150 3149 3149 3148 3147 3146 3146 3146 3145 3145 3144 3143 3144 3144 3143 3143 3144 3144 3144 3145 3145 3145 3147 3147 3148 3148 3147 3147 3150 3151 3152 3153 3154 3155 3156 3157 3158 3158 3158 3158 3157 3157 3157 3156 3157 3157 3158 3160 3162 3165 3167 3168 3168 3170 3172 3174 3176 3178 3180 3182 3184 3185 3187 3189 3190 3191 3192 3193
3156 3156 3156 3155 3155 3155 3155 3155 3155 3154 3154 3154 3154 3154 3153 3153 3152 3152 3151 3151 3150 3149 3148 3148 3147 3147 3146 3146 3146 3145 3145 3144 3144 3145 3144 3145 3145 3145 3145 3145 3145 3146 3147 3148 3148 3148 3146 3147 3149 3149 3150 3152 3153 3154 3155 3156 3157 3156 3157 3157 3158 3157 3157 3156 3156 3157 3158 3160 3161 3163 3165 3166 3167 3169 3170 3173 3175 3176 3179 3181 3182 3184 3186 3188 3189 3190 3192 3193
3156 3155 3155 3155 3155 3155 3155 3154 3154 3154 3154 3154 3154 3154 3154 3153 3153 3152 3152 3151 3150 3149 3149 3148 3148 3147 3147 3147 3146 3146 3146 3146 3145 3145 3145 3145 3145 3146 3146 3146 3146 3146 3147 3147 3147 3146 3146 3147 3148 3148 3149 3151 3152 3152 3153 3154 3155 3156 3156 3157 3158 3158 3157 3157 3156 3157 3157 3158 3159 3161 3162 3163 3165 3167 3169 3171 3173 3175 3177 3178 3180 3182 3184 3186 3188 3189 3191 3192
3155 3155 3155 3155 3154 3154 3154 3154 3154 3154 3154 3154 3154 3154 3154 3153 3153 3152 3152 3151 3150 3150 3149 3148 3148 3148 3148 3147 3147 3146 3146 3147 3146 3146 3145 3146 3146 3146 3146 3147 3146 3146 3147 3147 3145 3145 3145 3146 3146 3147 3148 3149 3150 3151 3152 3153 3154 3155 3155 3157 3157 3157 3157 3157 3157 3157 3157 3158 3159 3160 3161 3162 3163 3164 3167 3170 3171 3173 3174 3176 3178 3180 3183 3185 3187 3189 3190 3191
3155 3154 3154 3154 3154 3154 3154 3154 3154 3154 3154 3154 3154 3154 3154 3153 3153 3152 3152 3152 3151 3150 3149 3149 3148 3148 3148 3148 3147 3147 3147 3147 3147 3146 3146 3146 3146 3146 3147 3147 3146 3146 3147 3146 3144 3144 3144 3144 3145 3146 3146 3147 3148 3149 3151 3152 3153 3154 3155 3156 3157 3157 3157 3157 3158 3158 3158 3159 3160 3160 3161 3162 3161 3162 3166 3169 3169 3169 3171 3173 3176 3178 3181 3183 3186 3188 3189 3191
3154 3154 3154 3153 3153 3153 3153 3153 3153 3153 3154 3154 3155 3155 3154 3153 3153 3152 3152 3153 3151 3150 3149 3149 3149 3148 3148 3148 3148 3147 3147 3147 3147 3147 3146 3146 3146 3146 3147 3146 3146 3146 3146 3146 3144 3143 3144 3144 3144 3144 3144 3146 3147 3149 3149 3150 3151 3153 3155 3156 3156 3157 3157 3158 3158 3158 3159 3159 3159 3159 3160 3160 3159 3160 3163 3164 3163 3165 3168 3171 3174 3177 3179 3182 3185 3187 3188 3190
3153 3153 3153 3153 3153 3153 3153 3153 3153 3153 3154 3154 3155 3155 3154 3153 3153 3152 3153 3153 3151 3150 3150 3149 3149 3148 3148 3148 3148 3147 3147 3147 3147 3147 3146 3146 3146 3146 3147 3146 3146 3146 3145 3145 3144 3143 3143 3143 3143 3143 3143 3145 3146 3147 3148 3148 3150 3152 3153 3154 3155 3157 3158 3158 3159 3159 3159 3159 3159 3159 3158 3158 3158 3157 3158 3158 3159 3163 3167 3170 3173 3175 3178 3181 3183 3185 3187 3189
3153 3152 3152 3152 3152 3152 3152 3152 3153 3153 3153 3154 3154 3154 3154 3154 3153 3152 3153 3152 3151 3151 3150 3150 3149 3149 3148 3148 3148 3147 3147 3147 3147 3147 3147 3147 3147 3147 3147 3146 3146 3145 3145 3144 3143 3142 3142 3142 3143 3143 3143 3144 3144 3145 3147 3148 3150 3152 3153 3152 3154 3157 3159 3159 3159 3159 3159 3158 3158 3157 3157 3157 3156 3155 3156 3158 3161 3165 3167 3168 3171 3173 3176 3179 3182 3184 3186 3188
3152 3151 3151 3152 3152 3152 3152 3152 3152 3152 3153 3153 3154 3154 3154 3154 3153 3153 3153 3152 3151 3151 3150 3150 3149 3148 3147 3147 3148 3147 3147 3147 3147 3147 3148 3147 3147 3147 3146 3146 3146 3145 3144 3143 3142 3141 3141 3141 3142 3142 3142 3143 3143 3144 3147 3149 3150 3152 3153 3152 3153 3157 3160 3161 3161 3160 3159 3157 3157 3157 3157 3158 3155 3153 3156 3158 3160 3164 3165 3168 3171 3172 3175 3178 3180 3183 3185 3187
3151 3151 3151 3151 3151 3151 3151 3151 3152 3152 3152 3153 3154 3154 3154 3153 3153 3153 3152 3152 3152 3151 3150 3150 3149 3148 3147 3147 3148 3148 3148 3147 3147 3147 3148 3147 3146 3146 3146 3145 3145 3145 3144 3143 3142 3141 3141 3141 3142 3142 3142 3142 3142 3142 3145 3147 3148 3149 3151 3150 3151 3155 3160 3163 3162 3160 3158 3156 3156 3157 3158 3157 3154 3152 3153 3155 3158 3161 3164 3168 3170 3172 3174 3177 3179 3182 3184 3185
3150 3150 3150 3150 3150 3150 3150 3150 3151 3151 3152 3152 3153 3154 3153 3153 3153 3152 3152 3152 3151 3151 3150 3150 3149 3149 3148 3148 3148 3148 3148 3147 3147 3147 3147 3147 3146 3146 3146 3145 3144 3144 3144 3143 3143 3142 3141 3141 3142 3142 3142 3141 3141 3141 3143 3145 3146 3147 3149 3149 3149 3150 3153 3156 3157 3156 3156 3155 3156 3157 3157 3155 3152 3151 3151 3153 3156 3159 3162 3165 3169 3171 3174 3176 3179 3181 3183 3184
3149 3149 3149 3149 3149 3149 3150 3150 3150 3150 3151 3152 3153 3153 3153 3153 3153 3152 3152 3151 3151 3150 3150 3150 3149 3149 3148 3148 3148 3148 3147 3147 3147 3147 3147 3146 3146 3146 3146 3145 3145 3145 3144 3143 3143 3142 3141 3141 3141 3142 3142 3141 3142 3142 3143 3144 3145 3147 3148 3148 3148 3148 3148 3150 3152 3152 3153 3155 3155 3156 3154 3152 3151 3150 3150 3152 3155 3156 3159 3162 3166 3169 3171 3174 3177 3179 3181 3183
3148 3148 3148 3148 3148 3149 3149 3149 3149 3149 3150 3151 3152 3152 3152 3152 3152 3152 3151 3151 3150 3150 3150 3149 3149 3149 3149 3149 3148 3148 3148 3147 3147 3147 3147 3147 3147 3147 3147 3146 3146 3145 3144 3143 3143 3142 3141 3140 3141 3141 3141 3142 3143 3143 3143 3144 3145 3146 3147 3147 3148 3148 3147 3148 3150 3152 3152 3154 3154 3153 3151 3150 3150 3149 3150 3151 3152 3154 3156 3159 3161 3165 3169 3171 3173 3176 3179 3181
3147 3147 3147 3147 3147 3148 3148 3148 3148 3149 3150 3151 3151 3152 3152 3152 3152 3151 3151 3150 3150 3150 3150 3149 3149 3149 3149 3149 3148 3148 3148 3147 3147 3147 3146 3146 3147 3147 3147 3147 3146 3145 3145 3144 3143 3142 3140 3139 3140 3141 3141 3141 3142 3142 3143 3144 3145 3145 3146 3146 3147 3148 3147 3147 3150 3153 3154 3155 3153 3150 3150 3150 3149 3148 3148 3149 3150 3151 3153 3156 3159 3162 3165 3168 3170 3173 3176 3179
3146 3146 3146 3146 3146 3147 3147 3148 3148 3149 3149 3150 3151 3151 3151 3151 3151 3151 3150 3150 3150 3150 3150 3149 3149 3149 3149 3148 3148 3148 3147 3147 3146 3146 3146 3146 3146 3147 3147 3146 3146 3145 3144 3144 3143 3142 3141 3140 3139 3140 3140 3141 3141 3142 3144 3145 3145 3145 3146 3146 3146 3147 3147 3146 3148 3152 3153 3154 3151 3149 3149 3148 3146 3145 3145 3146 3147 3148 3151 3153 3156 3158 3161 3164 3168 3171 3174 3177
3145 3145 3145 3145 3145 3146 3146 3147 3147 3148 3149 3150 3150 3150 3150 3150 3150 3150 3150 3150 3149 3150 3149 3149 3149 3149 3149 3148 3148 3148 3147 3147 3146 3146 3146 3146 3146 3146 3146 3146 3146 3145 3144 3144 3143 3142 3141 3141 3140 3139 3140 3141 3141 3143 3144 3145 3145 3145 3145 3146 3146 3146 3146 3146 3146 3147 3148 3150 3150 3149 3148 3145 3143 3143 3143 3144 3145 3146 3148 3150 3153 3155 3158 3162 3165 3169 3172 3175
3144 3144 3144 3144 3145 3145 3145 3146 3147 3148 3148 3149 3149 3149 3149 3149 3149 3149 3149 3149 3149 3149 3149 3148 3148 3148 3148 3148 3148 3147 3147 3147 3146 3146 3146 3146 3146 3146 3146 3145 3145 3145 3144 3144 3143 3142 3142 3141 3140 3139 3140 3141 3142 3143 3144 3144 3144 3144 3144 3145 3145 3145 3145 3145 3145 3145 3145 3146 3148 3148 3147 3144 3142 3142 3142 3142 3143 3144 3147 3149 3151 3153 3155 3159 3163 3167 3170 3173
3143 3143 3144 3144 3144 3144 3145 3145 3146 3147 3147 3148 3148 3148 3148 3148 3148 3148 3148 3148 3148 3148 3148 3147 3147 3148 3147 3147 3147 3147 3147 3147 3146 3146 3146 3146 3146 3146 3146 3145 3144 3144 3144 3144 3143 3142 3142 3141 3141 3140 3141 3142 3143 3142 3142 3141 3142 3142 3142 3143 3144 3144 3144 3143 3144 3144 3143 3144 3144 3145 3145 3143 3142 3142 3142 3142 3143 3144 3146 3149 3151 3152 3154 3158 3162 3165 3168 3171
3143 3143 3143 3144 3144 3144 3144 3145 3145 3146 3146 3147 3147 3147 3148 3147 3147 3147 3147 3147 3147 3147 3147 3146 3146 3146 3147 3147 3147 3146 3146 3146 3146 3146 3146 3146 3147 3146 3146 3145 3145 3144 3144 3143 3143 3143 3142 3141 3140 3141 3141 3142 3143 3142 3140 3140 3141 3141 3142 3142 3143 3143 3142 3142 3142 3142 3142 3142 3142 3142 3142 3141 3142 3142 3142 3142 3143 3144 3146 3148 3151 3153 3155 3158 3162 3165 3167 3170
3142 3142 3142 3143 3143 3144 3144 3144 3144 3144 3145 3146 3146 3146 3146 3146 3145 3145 3145 3145 3146 3146 3146 3145 3145 3145 3146 3146 3146 3146 3146 3146 3146 3146 3146 3146 3146 3146 3146 3145 3145 3144 3144 3144 3143 3143 3142 3141 3140 3140 3140 3140 3141 3141 3140 3140 3141 3141 3141 3142 3142 3141 3141 3141 3141 3141 3141 3141 3141 3142 3141 3141 3141 3142 3142 3142 3143 3144 3146 3149 3151 3153 3155 3158 3161 3164 3165 3167
3141 3141 3141 3141 3142 3142 3143 3143 3143 3143 3144 3144 3144 3144 3144 3144 3144 3144 3144 3144 3144 3145 3145 3144 3144 3144 3145 3145 3145 3145 3145 3145 3145 3145 3145 3145 3145 3145 3145 3145 3145 3144 3144 3144 3143 3143 3143 3142 3141 3141 3141 3141 3142 3141 3140 3140 3141 3141 3141 3141 3141 3141 3141 3140 3141 3141 3140 3140 3140 3141 3140 3139 3140 3141 3142 3142 3143 3144 3146 3148 3150 3153 3155 3157 3159 3161 3162 3163
3139 3140 3140 3140 3140 3141 3141 3142 3142 3141 3142 3141 3141 3142 3143 3143 3143 3143 3143 3143 3143 3144 3143 3143 3143 3143 3144 3144 3144 3144 3144 3145 3145 3145 3145 3145 3145 3145 3145 3145 3145 3145 3144 3144 3144 3144 3143 3143 3142 3143 3145 3146 3147 3146 3144 3142 3142 3142 3141 3141 3141 3141 3140 3140 3140 3140 3140 3140 3140 3139 3139 3139 3140 3140 3141 3142 3144 3145 3146 3148 3149 3152 3154 3156 3158 3159 3160 3161
3136 3137 3138 3138 3139 3139 3139 3139 3139 3139 3140 3140 3140 3141 3142 3142 3142 3141 3141 3141 3142 3142 3142 3142 3142 3143 3143 3143 3143 3144 3144 3144 3144 3144 3144 3144 3144 3144 3145 3145 3145 3145 3145 3145 3144 3144 3144 3144 3144 3144 3146 3147 3148 3147 3146 3145 3144 3143 3142 3141 3140 3140 3139 3139 3139 3139 3139 3140 3139 3138 3138 3139 3139 3140 3141 3142 3144 3145 3146 3148 3149 3151 3153 3155 3157 3158 3159 3160
3134 3135 3136 3137 3138 3137 3138 3138 3138 3138 3139 3139 3140 3140 3140 3140 3140 3140 3139 3140 3140 3141 3141 3141 3141 3142 3142 3142 3143 3143 3143 3143 3143 3144 3144 3144 3144 3144 3144 3144 3144 3144 3144 3144 3144 3144 3144 3144 3144 3144 3145 3146 3146 3147 3146 3145 3145 3144 3143 3141 3139 3139 3139 3139 3139 3139 3139 3139 3138 3138 3139 3139 3140 3140 3141 3143 3144 3145 3147 3148 3150 3151 3153 3154 3156 3157 3158 3159
3132 3133 3134 3135 3135 3135 3136 3136 3137 3137 3138 3138 3139 3139 3139 3139 3138 3138 3138 3138 3139 3139 3139 3139 3139 3140 3140 3141 3142 3142 3142 3143 3143 3143 3143 3143 3142 3142 3143 3143 3143 3143 3144 3144 3144 3144 3144 3144 3144 3144 3144 3145 3145 3146 3145 3145 3145 3145 3144 3142 3140 3139 3139 3139 3138 3138 3138 3138 3137 3137 3138 3139 3139 3141 3142 3143 3144 3145 3147 3148 3149 3150 3152 3153 3154 3156 3157 3158
3130 3131 3132 3132 3133 3133 3134 3135 3135 3136 3137 3137 3137 3137 3138 3137 3137 3136 3136 3136 3137 3138 3137 3137 3138 3139 3139 3139 3140 3141 3141 3141 3142 3142 3142 3142 3141 3141 3142 3142 3142 3142 3143 3143 3143 3143 3144 3144 3144 3144 3144 3144 3144 3144 3144 3145 3145 3145 3145 3143 3142 3140 3139 3139 3138 3137 3137 3137 3137 3136 3137 3138 3139 3140 3141 3143 3144 3145 3146 3147 3148 3149 3151 3152 3153 3155 3156 3157
3128 3128 3129 3130 3130 3131 3132 3133 3134 3134 3135 3136 3135 3136 3136 3136 3136 3135 3135 3135 3135 3136 3136 3136 3137 3137 3138 3138 3139 3139 3139 3140 3140 3140 3140 3140 3141 3141 3141 3141 3141 3141 3142 3142 3142 3143 3143 3144 3144 3144 3144 3143 3143 3143 3144 3144 3145 3145 3144 3144 3143 3141 3140 3138 3137 3137 3136 3136 3136 3136 3136 3137 3139 3140 3141 3142 3144 3145 3146 3146 3147 3148 3149 3151 3152 3153 3154 3155
3125 3126 3126 3127 3128 3128 3129 3130 3132 3132 3133 3133 3134 3134 3135 3135 3135 3134 3134 3134 3134 3134 3135 3135 3136 3136 3137 3137 3138 3138 3138 3138 3138 3138 3139 3139 3140 3141 3140 3140 3140 3140 3141 3141 3142 3142 3143 3143 3143 3144 3144 3143 3142 3143 3143 3143 3144 3143 3143 3143 3142 3141 3140 3138 3137 3137 3136 3136 3136 3137 3138 3138 3139 3140 3141 3142 3143 3144 3145 3146 3147 3148 3148 3149 3151 3151 3152 3153
3123 3123 3124 3124 3125 3126 3127 3128 3129 3130 3130 3131 3132 3132 3133 3133 3133 3133 3132 3133 3133 3133 3134 3134 3135 3135 3136 3136 3137 3137 3137 3137 3137 3138 3138 3138 3139 3140 3140 3140 3139 3139 3140 3140 3141 3141 3142 3142 3142 3143 3143 3143 3143 3143 3142 3142 3143 3142 3141 3141 3141 3140 3139 3138 3137 3137 3137 3137 3137 3139 3140 3140 3139 3140 3141 3141 3142 3143 3144 3145 3146 3147 3148 3148 3149 3150 3151 3151